Year,Month,Day,Hour,Minute,Value (Times are PST for windgust in km/hr)
2010,11,22,00,00,6.40
2010,11,22,00,01,8.10
2010,11,22,00,02,8.10
2010,11,22,00,03,6.40
2010,11,22,00,04,4.80
2010,11,22,00,05,9.60
2010,11,22,00,06,8.10
2010,11,22,00,07,4.80
2010,11,22,00,08,6.40
2010,11,22,00,09,8.10
2010,11,22,00,10,6.40
2010,11,22,00,11,1.60
2010,11,22,00,13,3.20
2010,11,22,00,14,3.20
2010,11,22,00,15,6.40
2010,11,22,00,16,6.40
2010,11,22,00,17,3.20
2010,11,22,00,18,1.60
2010,11,22,00,19,4.80
2010,11,22,00,20,4.80
2010,11,22,00,21,4.80
2010,11,22,00,22,4.80
2010,11,22,00,23,3.20
2010,11,22,00,24,8.10
2010,11,22,00,25,4.80
2010,11,22,00,26,1.60
2010,11,22,00,27,1.60
2010,11,22,00,28,9.60
2010,11,22,00,29,8.10
2010,11,22,00,30,14.50
2010,11,22,00,31,8.10
2010,11,22,00,32,6.40
2010,11,22,00,33,8.10
2010,11,22,00,34,4.80
2010,11,22,00,35,6.40
2010,11,22,00,36,4.80
2010,11,22,00,37,4.80
2010,11,22,00,38,1.60
2010,11,22,00,39,1.60
2010,11,22,00,43,3.20
2010,11,22,00,44,3.20
2010,11,22,00,46,1.60
2010,11,22,00,47,1.60
2010,11,22,00,48,4.80
2010,11,22,00,49,3.20
2010,11,22,00,50,3.20
2010,11,22,00,51,1.60
2010,11,22,00,52,1.60
2010,11,22,00,53,3.20
2010,11,22,00,54,1.60
2010,11,22,00,55,3.20
2010,11,22,00,56,1.60
2010,11,22,00,58,1.60
2010,11,22,00,59,1.60
2010,11,22,01,00,1.60
2010,11,22,01,01,1.60
2010,11,22,01,02,4.80
2010,11,22,01,06,1.60
2010,11,22,01,09,3.20
2010,11,22,01,10,1.60
2010,11,22,01,11,1.60
2010,11,22,01,12,1.60
2010,11,22,01,13,3.20
2010,11,22,01,14,1.60
2010,11,22,01,17,1.60
2010,11,22,01,19,1.60
2010,11,22,01,20,1.60
2010,11,22,01,34,1.60
2010,11,22,01,48,1.60
2010,11,22,01,56,3.20
2010,11,22,01,57,1.60
2010,11,22,01,59,1.60
2010,11,22,02,02,3.20
2010,11,22,02,03,1.60
2010,11,22,02,04,1.60
2010,11,22,02,05,6.40
2010,11,22,02,06,6.40
2010,11,22,02,07,6.40
2010,11,22,02,08,6.40
2010,11,22,02,09,6.40
2010,11,22,02,10,3.20
2010,11,22,02,11,4.80
2010,11,22,02,12,3.20
2010,11,22,02,13,3.20
2010,11,22,02,14,4.80
2010,11,22,02,15,3.20
2010,11,22,02,16,4.80
2010,11,22,02,17,3.20
2010,11,22,02,18,3.20
2010,11,22,02,19,1.60
2010,11,22,02,20,3.20
2010,11,22,02,21,4.80
2010,11,22,02,22,4.80
2010,11,22,02,23,8.10
2010,11,22,02,24,9.60
2010,11,22,02,25,6.40
2010,11,22,02,26,6.40
2010,11,22,02,27,4.80
2010,11,22,02,28,6.40
2010,11,22,02,29,6.40
2010,11,22,02,30,4.80
2010,11,22,02,31,4.80
2010,11,22,02,32,6.40
2010,11,22,02,33,6.40
2010,11,22,02,34,3.20
2010,11,22,02,35,4.80
2010,11,22,02,36,6.40
2010,11,22,02,37,6.40
2010,11,22,02,38,4.80
2010,11,22,02,39,6.40
2010,11,22,02,40,6.40
2010,11,22,02,41,9.60
2010,11,22,02,42,6.40
2010,11,22,02,43,8.10
2010,11,22,02,44,6.40
2010,11,22,02,45,6.40
2010,11,22,02,46,11.30
2010,11,22,02,47,6.40
2010,11,22,02,48,6.40
2010,11,22,02,49,6.40
2010,11,22,02,50,8.10
2010,11,22,02,51,8.10
2010,11,22,02,52,8.10
2010,11,22,02,53,6.40
2010,11,22,02,54,6.40
2010,11,22,02,55,9.60
2010,11,22,02,56,8.10
2010,11,22,02,57,8.10
2010,11,22,02,58,6.40
2010,11,22,02,59,8.10
2010,11,22,03,00,11.30
2010,11,22,03,01,9.60
2010,11,22,03,02,12.90
2010,11,22,03,03,14.50
2010,11,22,03,04,14.50
2010,11,22,03,05,9.60
2010,11,22,03,06,14.50
2010,11,22,03,07,14.50
2010,11,22,03,08,14.50
2010,11,22,03,09,14.50
2010,11,22,03,10,14.50
2010,11,22,03,11,14.50
2010,11,22,03,12,9.60
2010,11,22,03,13,11.30
2010,11,22,03,14,14.50
2010,11,22,03,15,14.50
2010,11,22,03,16,11.30
2010,11,22,03,17,11.30
2010,11,22,03,18,14.50
2010,11,22,03,19,12.90
2010,11,22,03,20,9.60
2010,11,22,03,21,12.90
2010,11,22,03,22,11.30
2010,11,22,03,23,11.30
2010,11,22,03,24,16.10
2010,11,22,03,25,9.60
2010,11,22,03,26,4.80
2010,11,22,03,27,6.40
2010,11,22,03,28,6.40
2010,11,22,03,29,8.10
2010,11,22,03,30,8.10
2010,11,22,03,31,8.10
2010,11,22,03,32,6.40
2010,11,22,03,33,8.10
2010,11,22,03,34,8.10
2010,11,22,03,35,4.80
2010,11,22,03,36,4.80
2010,11,22,03,37,4.80
2010,11,22,03,38,4.80
2010,11,22,03,39,3.20
2010,11,22,03,40,3.20
2010,11,22,03,42,1.60
2010,11,22,03,43,1.60
2010,11,22,03,44,3.20
2010,11,22,03,45,1.60
2010,11,22,03,47,4.80
2010,11,22,03,48,8.10
2010,11,22,03,49,3.20
2010,11,22,03,50,6.40
2010,11,22,03,51,3.20
2010,11,22,03,52,4.80
2010,11,22,03,53,8.10
2010,11,22,03,54,8.10
2010,11,22,03,55,8.10
2010,11,22,03,56,8.10
2010,11,22,03,57,8.10
2010,11,22,03,58,8.10
2010,11,22,03,59,4.80
2010,11,22,04,00,4.80
2010,11,22,04,01,6.40
2010,11,22,04,02,9.60
2010,11,22,04,03,9.60
2010,11,22,04,04,8.10
2010,11,22,04,05,9.60
2010,11,22,04,06,14.50
2010,11,22,04,07,11.30
2010,11,22,04,08,9.60
2010,11,22,04,09,9.60
2010,11,22,04,10,9.60
2010,11,22,04,11,6.40
2010,11,22,04,12,8.10
2010,11,22,04,13,6.40
2010,11,22,04,14,4.80
2010,11,22,04,15,6.40
2010,11,22,04,16,3.20
2010,11,22,04,17,8.10
2010,11,22,04,18,8.10
2010,11,22,04,19,14.50
2010,11,22,04,20,9.60
2010,11,22,04,21,9.60
2010,11,22,04,22,9.60
2010,11,22,04,23,9.60
2010,11,22,04,24,9.60
2010,11,22,04,25,19.30
2010,11,22,04,26,14.50
2010,11,22,04,27,16.10
2010,11,22,04,28,16.10
2010,11,22,04,29,8.10
2010,11,22,04,30,4.80
2010,11,22,04,31,11.30
2010,11,22,04,32,16.10
2010,11,22,04,33,17.70
2010,11,22,04,34,14.50
2010,11,22,04,35,14.50
2010,11,22,04,36,16.10
2010,11,22,04,37,9.60
2010,11,22,04,38,8.10
2010,11,22,04,39,8.10
2010,11,22,04,40,16.10
2010,11,22,04,41,8.10
2010,11,22,04,42,11.30
2010,11,22,04,43,8.10
2010,11,22,04,44,8.10
2010,11,22,04,45,14.50
2010,11,22,04,46,11.30
2010,11,22,04,47,12.90
2010,11,22,04,48,14.50
2010,11,22,04,49,11.30
2010,11,22,04,50,16.10
2010,11,22,04,51,11.30
2010,11,22,04,52,14.50
2010,11,22,04,53,17.70
2010,11,22,04,54,8.10
2010,11,22,04,55,8.10
2010,11,22,04,56,9.60
2010,11,22,04,57,9.60
2010,11,22,04,58,16.10
2010,11,22,04,59,20.90
2010,11,22,05,00,14.50
2010,11,22,05,01,19.30
2010,11,22,05,02,14.50
2010,11,22,05,03,22.50
2010,11,22,05,04,9.60
2010,11,22,05,05,8.10
2010,11,22,05,06,16.10
2010,11,22,05,07,8.10
2010,11,22,05,08,6.40
2010,11,22,05,09,9.60
2010,11,22,05,10,17.70
2010,11,22,05,11,17.70
2010,11,22,05,12,17.70
2010,11,22,05,13,17.70
2010,11,22,05,14,11.30
2010,11,22,05,15,11.30
2010,11,22,05,16,8.10
2010,11,22,05,17,16.10
2010,11,22,05,18,16.10
2010,11,22,05,19,11.30
2010,11,22,05,20,6.40
2010,11,22,05,21,11.30
2010,11,22,05,22,9.60
2010,11,22,05,23,11.30
2010,11,22,05,24,14.50
2010,11,22,05,25,14.50
2010,11,22,05,26,11.30
2010,11,22,05,27,16.10
2010,11,22,05,28,16.10
2010,11,22,05,29,16.10
2010,11,22,05,30,14.50
2010,11,22,05,31,16.10
2010,11,22,05,32,6.40
2010,11,22,05,33,9.60
2010,11,22,05,34,17.70
2010,11,22,05,35,11.30
2010,11,22,05,36,6.40
2010,11,22,05,37,6.40
2010,11,22,05,38,14.50
2010,11,22,05,39,14.50
2010,11,22,05,40,6.40
2010,11,22,05,41,4.80
2010,11,22,05,42,8.10
2010,11,22,05,43,6.40
2010,11,22,05,44,8.10
2010,11,22,05,45,9.60
2010,11,22,05,46,11.30
2010,11,22,05,47,16.10
2010,11,22,05,48,19.30
2010,11,22,05,49,16.10
2010,11,22,05,50,11.30
2010,11,22,05,51,11.30
2010,11,22,05,52,11.30
2010,11,22,05,53,9.60
2010,11,22,05,54,11.30
2010,11,22,05,55,11.30
2010,11,22,05,56,14.50
2010,11,22,05,57,8.10
2010,11,22,05,58,14.50
2010,11,22,05,59,11.30
2010,11,22,06,00,9.60
2010,11,22,06,01,8.10
2010,11,22,06,02,8.10
2010,11,22,06,03,8.10
2010,11,22,06,04,9.60
2010,11,22,06,05,8.10
2010,11,22,06,06,8.10
2010,11,22,06,07,17.70
2010,11,22,06,08,17.70
2010,11,22,06,09,17.70
2010,11,22,06,10,14.50
2010,11,22,06,11,8.10
2010,11,22,06,12,11.30
2010,11,22,06,13,11.30
2010,11,22,06,14,24.20
2010,11,22,06,15,19.30
2010,11,22,06,16,11.30
2010,11,22,06,17,14.50
2010,11,22,06,18,9.60
2010,11,22,06,19,19.30
2010,11,22,06,20,19.30
2010,11,22,06,21,16.10
2010,11,22,06,22,11.30
2010,11,22,06,23,14.50
2010,11,22,06,24,9.60
2010,11,22,06,25,16.10
2010,11,22,06,26,11.30
2010,11,22,06,27,19.30
2010,11,22,06,28,17.70
2010,11,22,06,29,17.70
2010,11,22,06,30,16.10
2010,11,22,06,31,14.50
2010,11,22,06,32,11.30
2010,11,22,06,33,11.30
2010,11,22,06,34,14.50
2010,11,22,06,35,8.10
2010,11,22,06,36,11.30
2010,11,22,06,37,8.10
2010,11,22,06,38,16.10
2010,11,22,06,39,24.20
2010,11,22,06,40,16.10
2010,11,22,06,41,14.50
2010,11,22,06,42,11.30
2010,11,22,06,43,11.30
2010,11,22,06,44,12.90
2010,11,22,06,45,16.10
2010,11,22,06,46,16.10
2010,11,22,06,47,20.90
2010,11,22,06,48,11.30
2010,11,22,06,49,11.30
2010,11,22,06,50,16.10
2010,11,22,06,51,12.90
2010,11,22,06,52,25.70
2010,11,22,06,53,17.70
2010,11,22,06,54,19.30
2010,11,22,06,55,19.30
2010,11,22,06,56,9.60
2010,11,22,06,57,9.60
2010,11,22,06,58,20.90
2010,11,22,06,59,19.30
2010,11,22,07,00,16.10
2010,11,22,07,01,22.50
2010,11,22,07,02,25.70
2010,11,22,07,03,24.20
2010,11,22,07,04,20.90
2010,11,22,07,05,30.60
2010,11,22,07,06,30.60
2010,11,22,07,07,20.90
2010,11,22,07,08,27.40
2010,11,22,07,09,17.70
2010,11,22,07,10,14.50
2010,11,22,07,11,17.70
2010,11,22,07,12,14.50
2010,11,22,07,13,19.30
2010,11,22,07,14,24.20
2010,11,22,07,15,17.70
2010,11,22,07,16,27.40
2010,11,22,07,17,24.20
2010,11,22,07,18,20.90
2010,11,22,07,19,20.90
2010,11,22,07,20,14.50
2010,11,22,07,21,17.70
2010,11,22,07,22,22.50
2010,11,22,07,23,19.30
2010,11,22,07,24,14.50
2010,11,22,07,25,16.10
2010,11,22,07,26,16.10
2010,11,22,07,27,19.30
2010,11,22,07,28,25.70
2010,11,22,07,29,25.70
2010,11,22,07,30,9.60
2010,11,22,07,31,17.70
2010,11,22,07,32,24.20
2010,11,22,07,33,14.50
2010,11,22,07,34,17.70
2010,11,22,07,35,16.10
2010,11,22,07,36,19.30
2010,11,22,07,37,19.30
2010,11,22,07,38,22.50
2010,11,22,07,39,22.50
2010,11,22,07,40,16.10
2010,11,22,07,41,11.30
2010,11,22,07,42,12.90
2010,11,22,07,43,8.10
2010,11,22,07,44,19.30
2010,11,22,07,45,14.50
2010,11,22,07,46,14.50
2010,11,22,07,47,14.50
2010,11,22,07,48,24.20
2010,11,22,07,49,22.50
2010,11,22,07,50,19.30
2010,11,22,07,51,16.10
2010,11,22,07,52,17.70
2010,11,22,07,53,17.70
2010,11,22,07,54,17.70
2010,11,22,07,55,22.50
2010,11,22,07,56,24.20
2010,11,22,07,57,20.90
2010,11,22,07,58,16.10
2010,11,22,07,59,25.70
2010,11,22,08,00,19.30
2010,11,22,08,01,17.70
2010,11,22,08,02,17.70
2010,11,22,08,03,11.30
2010,11,22,08,04,16.10
2010,11,22,08,05,19.30
2010,11,22,08,06,17.70
2010,11,22,08,07,20.90
2010,11,22,08,08,22.50
2010,11,22,08,09,22.50
2010,11,22,08,10,17.70
2010,11,22,08,11,19.30
2010,11,22,08,12,20.90
2010,11,22,08,13,22.50
2010,11,22,08,14,11.30
2010,11,22,08,15,24.20
2010,11,22,08,16,30.60
2010,11,22,08,17,22.50
2010,11,22,08,18,22.50
2010,11,22,08,19,16.10
2010,11,22,08,20,27.40
2010,11,22,08,21,20.90
2010,11,22,08,22,24.20
2010,11,22,08,23,30.60
2010,11,22,08,24,30.60
2010,11,22,08,25,17.70
2010,11,22,08,26,19.30
2010,11,22,08,27,20.90
2010,11,22,08,28,19.30
2010,11,22,08,29,24.20
2010,11,22,08,30,27.40
2010,11,22,08,31,19.30
2010,11,22,08,32,29.00
2010,11,22,08,33,16.10
2010,11,22,08,34,20.90
2010,11,22,08,35,17.70
2010,11,22,08,36,17.70
2010,11,22,08,37,14.50
2010,11,22,08,38,22.50
2010,11,22,08,39,20.90
2010,11,22,08,40,17.70
2010,11,22,08,41,29.00
2010,11,22,08,42,16.10
2010,11,22,08,43,19.30
2010,11,22,08,44,25.70
2010,11,22,08,45,25.70
2010,11,22,08,46,27.40
2010,11,22,08,47,22.50
2010,11,22,08,48,33.80
2010,11,22,08,49,29.00
2010,11,22,08,50,20.90
2010,11,22,08,51,17.70
2010,11,22,08,52,19.30
2010,11,22,08,53,27.40
2010,11,22,08,54,25.70
2010,11,22,08,55,20.90
2010,11,22,08,56,25.70
2010,11,22,08,57,24.20
2010,11,22,08,58,20.90
2010,11,22,08,59,19.30
2010,11,22,09,00,20.90
2010,11,22,09,01,16.10
2010,11,22,09,02,19.30
2010,11,22,09,03,20.90
2010,11,22,09,04,20.90
2010,11,22,09,05,19.30
2010,11,22,09,06,17.70
2010,11,22,09,07,20.90
2010,11,22,09,08,22.50
2010,11,22,09,09,20.90
2010,11,22,09,10,17.70
2010,11,22,09,11,17.70
2010,11,22,09,12,19.30
2010,11,22,09,13,16.10
2010,11,22,09,14,11.30
2010,11,22,09,15,11.30
2010,11,22,09,16,16.10
2010,11,22,09,17,16.10
2010,11,22,09,18,14.50
2010,11,22,09,19,11.30
2010,11,22,09,20,14.50
2010,11,22,09,21,14.50
2010,11,22,09,22,9.60
2010,11,22,09,23,16.10
2010,11,22,09,24,11.30
2010,11,22,09,25,11.30
2010,11,22,09,26,9.60
2010,11,22,09,27,17.70
2010,11,22,09,28,12.90
2010,11,22,09,29,11.30
2010,11,22,09,30,16.10
2010,11,22,09,31,17.70
2010,11,22,09,32,14.50
2010,11,22,09,33,8.10
2010,11,22,09,34,9.60
2010,11,22,09,35,16.10
2010,11,22,09,36,16.10
2010,11,22,09,37,17.70
2010,11,22,09,38,20.90
2010,11,22,09,39,17.70
2010,11,22,09,40,9.60
2010,11,22,09,41,14.50
2010,11,22,09,42,14.50
2010,11,22,09,43,16.10
2010,11,22,09,44,16.10
2010,11,22,09,45,16.10
2010,11,22,09,46,16.10
2010,11,22,09,47,16.10
2010,11,22,09,48,16.10
2010,11,22,09,49,16.10
2010,11,22,09,50,19.30
2010,11,22,09,51,22.50
2010,11,22,09,52,17.70
2010,11,22,09,53,16.10
2010,11,22,09,54,16.10
2010,11,22,09,55,16.10
2010,11,22,09,56,20.90
2010,11,22,09,57,19.30
2010,11,22,09,58,12.90
2010,11,22,09,59,17.70
2010,11,22,10,00,9.60
2010,11,22,10,01,20.90
2010,11,22,10,02,22.50
2010,11,22,10,03,14.50
2010,11,22,10,04,17.70
2010,11,22,10,05,22.50
2010,11,22,10,06,22.50
2010,11,22,10,07,11.30
2010,11,22,10,08,12.90
2010,11,22,10,09,19.30
2010,11,22,10,10,22.50
2010,11,22,10,11,32.20
2010,11,22,10,12,27.40
2010,11,22,10,13,19.30
2010,11,22,10,14,20.90
2010,11,22,10,15,25.70
2010,11,22,10,16,19.30
2010,11,22,10,17,16.10
2010,11,22,10,18,16.10
2010,11,22,10,19,25.70
2010,11,22,10,20,17.70
2010,11,22,10,21,17.70
2010,11,22,10,22,17.70
2010,11,22,10,23,12.90
2010,11,22,10,24,17.70
2010,11,22,10,25,11.30
2010,11,22,10,26,17.70
2010,11,22,10,27,20.90
2010,11,22,10,28,11.30
2010,11,22,10,29,12.90
2010,11,22,10,30,11.30
2010,11,22,10,31,17.70
2010,11,22,10,32,12.90
2010,11,22,10,33,22.50
2010,11,22,10,34,14.50
2010,11,22,10,35,17.70
2010,11,22,10,36,20.90
2010,11,22,10,37,19.30
2010,11,22,10,38,16.10
2010,11,22,10,39,17.70
2010,11,22,10,40,14.50
2010,11,22,10,41,25.70
2010,11,22,10,42,24.20
2010,11,22,10,43,20.90
2010,11,22,10,44,22.50
2010,11,22,10,45,20.90
2010,11,22,10,46,16.10
2010,11,22,10,47,17.70
2010,11,22,10,48,27.40
2010,11,22,10,49,29.00
2010,11,22,10,50,24.20
2010,11,22,10,51,17.70
2010,11,22,10,52,11.30
2010,11,22,10,53,22.50
2010,11,22,10,54,24.20
2010,11,22,10,55,29.00
2010,11,22,10,56,32.20
2010,11,22,10,57,19.30
2010,11,22,10,58,20.90
2010,11,22,10,59,29.00
2010,11,22,11,00,17.70
2010,11,22,11,01,19.30
2010,11,22,11,02,14.50
2010,11,22,11,03,22.50
2010,11,22,11,04,22.50
2010,11,22,11,05,14.50
2010,11,22,11,06,24.20
2010,11,22,11,07,30.60
2010,11,22,11,08,24.20
2010,11,22,11,09,19.30
2010,11,22,11,10,29.00
2010,11,22,11,11,22.50
2010,11,22,11,12,16.10
2010,11,22,11,13,29.00
2010,11,22,11,14,20.90
2010,11,22,11,15,24.20
2010,11,22,11,16,25.70
2010,11,22,11,17,35.40
2010,11,22,11,18,22.50
2010,11,22,11,19,27.40
2010,11,22,11,20,24.20
2010,11,22,11,21,22.50
2010,11,22,11,22,29.00
2010,11,22,11,23,24.20
2010,11,22,11,24,32.20
2010,11,22,11,25,22.50
2010,11,22,11,26,27.40
2010,11,22,11,27,17.70
2010,11,22,11,28,19.30
2010,11,22,11,29,20.90
2010,11,22,11,30,20.90
2010,11,22,11,31,32.20
2010,11,22,11,32,29.00
2010,11,22,11,33,29.00
2010,11,22,11,34,37.00
2010,11,22,11,35,29.00
2010,11,22,11,36,29.00
2010,11,22,11,37,24.20
2010,11,22,11,38,25.70
2010,11,22,11,39,22.50
2010,11,22,11,40,20.90
2010,11,22,11,41,33.80
2010,11,22,11,42,30.60
2010,11,22,11,43,24.20
2010,11,22,11,44,20.90
2010,11,22,11,45,24.20
2010,11,22,11,46,40.20
2010,11,22,11,47,45.10
2010,11,22,11,48,32.20
2010,11,22,11,49,40.20
2010,11,22,11,50,35.40
2010,11,22,11,51,38.60
2010,11,22,11,52,33.80
2010,11,22,11,53,45.10
2010,11,22,11,54,40.20
2010,11,22,11,55,29.00
2010,11,22,11,56,35.40
2010,11,22,11,57,40.20
2010,11,22,11,58,29.00
2010,11,22,11,59,33.80
2010,11,22,12,00,22.50
2010,11,22,12,01,27.40
2010,11,22,12,02,32.20
2010,11,22,12,03,35.40
2010,11,22,12,04,46.70
2010,11,22,12,05,35.40
2010,11,22,12,06,37.00
2010,11,22,12,07,33.80
2010,11,22,12,08,30.60
2010,11,22,12,09,38.60
2010,11,22,12,10,45.10
2010,11,22,12,11,33.80
2010,11,22,12,12,37.00
2010,11,22,12,13,24.20
2010,11,22,12,14,25.70
2010,11,22,12,15,25.70
2010,11,22,12,16,32.20
2010,11,22,12,17,35.40
2010,11,22,12,18,24.20
2010,11,22,12,19,38.60
2010,11,22,12,20,30.60
2010,11,22,12,21,29.00
2010,11,22,12,22,33.80
2010,11,22,12,23,43.50
2010,11,22,12,24,37.00
2010,11,22,12,25,51.50
2010,11,22,12,26,53.10
2010,11,22,12,27,45.10
2010,11,22,12,28,45.10
2010,11,22,12,29,53.10
2010,11,22,12,30,41.80
2010,11,22,12,31,49.90
2010,11,22,12,32,48.30
2010,11,22,12,33,38.60
2010,11,22,12,34,35.40
2010,11,22,12,35,48.30
2010,11,22,12,36,45.10
2010,11,22,12,37,35.40
2010,11,22,12,38,24.20
2010,11,22,12,39,33.80
2010,11,22,12,40,43.50
2010,11,22,12,41,32.20
2010,11,22,12,42,33.80
2010,11,22,12,43,40.20
2010,11,22,12,44,35.40
2010,11,22,12,45,48.30
2010,11,22,12,46,27.40
2010,11,22,12,47,38.60
2010,11,22,12,48,32.20
2010,11,22,12,49,29.00
2010,11,22,12,50,33.80
2010,11,22,12,51,53.10
2010,11,22,12,52,38.60
2010,11,22,12,53,40.20
2010,11,22,12,54,45.10
2010,11,22,12,55,43.50
2010,11,22,12,56,51.50
2010,11,22,12,57,38.60
2010,11,22,12,58,35.40
2010,11,22,12,59,48.30
2010,11,22,13,00,43.50
2010,11,22,13,01,33.80
2010,11,22,13,02,32.20
2010,11,22,13,03,25.70
2010,11,22,13,04,37.00
2010,11,22,13,05,35.40
2010,11,22,13,06,40.20
2010,11,22,13,07,27.40
2010,11,22,13,08,33.80
2010,11,22,13,09,38.60
2010,11,22,13,10,35.40
2010,11,22,13,11,38.60
2010,11,22,13,12,27.40
2010,11,22,13,13,43.50
2010,11,22,13,14,40.20
2010,11,22,13,15,38.60
2010,11,22,13,16,24.20
2010,11,22,13,17,30.60
2010,11,22,13,18,51.50
2010,11,22,13,19,46.70
2010,11,22,13,20,40.20
2010,11,22,13,21,53.10
2010,11,22,13,22,54.70
2010,11,22,13,23,46.70
2010,11,22,13,24,41.80
2010,11,22,13,25,45.10
2010,11,22,13,26,40.20
2010,11,22,13,27,53.10
2010,11,22,13,28,49.90
2010,11,22,13,29,43.50
2010,11,22,13,30,59.50
2010,11,22,13,31,40.20
2010,11,22,13,32,45.10
2010,11,22,13,33,40.20
2010,11,22,13,34,27.40
2010,11,22,13,35,45.10
2010,11,22,13,36,35.40
2010,11,22,13,37,30.60
2010,11,22,13,38,35.40
2010,11,22,13,39,33.80
2010,11,22,13,40,38.60
2010,11,22,13,41,29.00
2010,11,22,13,42,45.10
2010,11,22,13,43,46.70
2010,11,22,13,44,33.80
2010,11,22,13,45,54.70
2010,11,22,13,46,43.50
2010,11,22,13,47,45.10
2010,11,22,13,48,43.50
2010,11,22,13,49,35.40
2010,11,22,13,50,46.70
2010,11,22,13,51,49.90
2010,11,22,13,52,43.50
2010,11,22,13,53,38.60
2010,11,22,13,54,54.70
2010,11,22,13,55,33.80
2010,11,22,13,56,38.60
2010,11,22,13,57,40.20
2010,11,22,13,58,43.50
2010,11,22,13,59,57.90
2010,11,22,14,00,45.10
2010,11,22,14,01,37.00
2010,11,22,14,02,35.40
2010,11,22,14,03,59.50
2010,11,22,14,04,51.50
2010,11,22,14,05,51.50
2010,11,22,14,06,57.90
2010,11,22,14,07,43.50
2010,11,22,14,08,43.50
2010,11,22,14,09,54.70
2010,11,22,14,10,37.00
2010,11,22,14,11,40.20
2010,11,22,14,12,35.40
2010,11,22,14,13,45.10
2010,11,22,14,14,53.10
2010,11,22,14,15,32.20
2010,11,22,14,16,35.40
2010,11,22,14,17,38.60
2010,11,22,14,18,37.00
2010,11,22,14,19,45.10
2010,11,22,14,20,56.30
2010,11,22,14,21,45.10
2010,11,22,14,22,41.80
2010,11,22,14,23,51.50
2010,11,22,14,24,53.10
2010,11,22,14,25,41.80
2010,11,22,14,26,43.50
2010,11,22,14,27,51.50
2010,11,22,14,28,48.30
2010,11,22,14,29,37.00
2010,11,22,14,30,35.40
2010,11,22,14,31,53.10
2010,11,22,14,32,46.70
2010,11,22,14,33,49.90
2010,11,22,14,34,56.30
2010,11,22,14,35,54.70
2010,11,22,14,36,43.50
2010,11,22,14,37,30.60
2010,11,22,14,38,49.90
2010,11,22,14,39,46.70
2010,11,22,14,40,43.50
2010,11,22,14,41,43.50
2010,11,22,14,42,51.50
2010,11,22,14,43,45.10
2010,11,22,14,44,54.70
2010,11,22,14,45,53.10
2010,11,22,14,46,64.40
2010,11,22,14,47,46.70
2010,11,22,14,48,57.90
2010,11,22,14,49,46.70
2010,11,22,14,50,56.30
2010,11,22,14,51,53.10
2010,11,22,14,52,51.50
2010,11,22,14,53,49.90
2010,11,22,14,54,43.50
2010,11,22,14,55,38.60
2010,11,22,14,56,35.40
2010,11,22,14,57,51.50
2010,11,22,14,58,38.60
2010,11,22,14,59,56.30
2010,11,22,15,00,45.10
2010,11,22,15,01,51.50
2010,11,22,15,02,43.50
2010,11,22,15,03,45.10
2010,11,22,15,04,35.40
2010,11,22,15,05,41.80
2010,11,22,15,06,41.80
2010,11,22,15,07,35.40
2010,11,22,15,08,66.00
2010,11,22,15,09,56.30
2010,11,22,15,10,40.20
2010,11,22,15,11,33.80
2010,11,22,15,12,48.30
2010,11,22,15,13,49.90
2010,11,22,15,14,33.80
2010,11,22,15,15,45.10
2010,11,22,15,16,49.90
2010,11,22,15,17,45.10
2010,11,22,15,18,43.50
2010,11,22,15,19,38.60
2010,11,22,15,20,27.40
2010,11,22,15,21,45.10
2010,11,22,15,22,51.50
2010,11,22,15,23,37.00
2010,11,22,15,24,33.80
2010,11,22,15,25,43.50
2010,11,22,15,26,38.60
2010,11,22,15,27,37.00
2010,11,22,15,28,53.10
2010,11,22,15,29,35.40
2010,11,22,15,30,40.20
2010,11,22,15,31,29.00
2010,11,22,15,32,40.20
2010,11,22,15,33,41.80
2010,11,22,15,34,43.50
2010,11,22,15,35,35.40
2010,11,22,15,36,46.70
2010,11,22,15,37,51.50
2010,11,22,15,38,43.50
2010,11,22,15,39,35.40
2010,11,22,15,40,40.20
2010,11,22,15,41,38.60
2010,11,22,15,42,45.10
2010,11,22,15,43,49.90
2010,11,22,15,44,48.30
2010,11,22,15,45,37.00
2010,11,22,15,46,43.50
2010,11,22,15,47,46.70
2010,11,22,15,48,46.70
2010,11,22,15,49,46.70
2010,11,22,15,50,45.10
2010,11,22,15,51,41.80
2010,11,22,15,52,49.90
2010,11,22,15,53,37.00
2010,11,22,15,54,40.20
2010,11,22,15,55,53.10
2010,11,22,15,56,38.60
2010,11,22,15,57,49.90
2010,11,22,15,58,46.70
2010,11,22,15,59,46.70
2010,11,22,16,00,53.10
2010,11,22,16,01,46.70
2010,11,22,16,02,43.50
2010,11,22,16,03,46.70
2010,11,22,16,04,45.10
2010,11,22,16,05,53.10
2010,11,22,16,06,40.20
2010,11,22,16,07,33.80
2010,11,22,16,08,38.60
2010,11,22,16,09,49.90
2010,11,22,16,10,46.70
2010,11,22,16,11,49.90
2010,11,22,16,12,51.50
2010,11,22,16,13,51.50
2010,11,22,16,14,53.10
2010,11,22,16,15,35.40
2010,11,22,16,16,40.20
2010,11,22,16,17,54.70
2010,11,22,16,18,49.90
2010,11,22,16,19,53.10
2010,11,22,16,20,56.30
2010,11,22,16,21,49.90
2010,11,22,16,22,35.40
2010,11,22,16,23,46.70
2010,11,22,16,24,61.20
2010,11,22,16,25,62.70
2010,11,22,16,26,56.30
2010,11,22,16,27,51.50
2010,11,22,16,28,51.50
2010,11,22,16,29,57.90
2010,11,22,16,30,45.10
2010,11,22,16,31,54.70
2010,11,22,16,32,67.60
2010,11,22,16,33,54.70
2010,11,22,16,34,48.30
2010,11,22,16,35,45.10
2010,11,22,16,36,54.70
2010,11,22,16,37,43.50
2010,11,22,16,38,40.20
2010,11,22,16,39,38.60
2010,11,22,16,40,54.70
2010,11,22,16,41,54.70
2010,11,22,16,42,59.50
2010,11,22,16,43,53.10
2010,11,22,16,44,41.80
2010,11,22,16,45,59.50
2010,11,22,16,46,53.10
2010,11,22,16,47,46.70
2010,11,22,16,48,45.10
2010,11,22,16,49,37.00
2010,11,22,16,50,53.10
2010,11,22,16,51,57.90
2010,11,22,16,52,53.10
2010,11,22,16,53,57.90
2010,11,22,16,54,61.20
2010,11,22,16,55,41.80
2010,11,22,16,56,53.10
2010,11,22,16,57,43.50
2010,11,22,16,58,40.20
2010,11,22,16,59,49.90
2010,11,22,17,00,70.80
2010,11,22,17,01,51.50
2010,11,22,17,02,53.10
2010,11,22,17,03,53.10
2010,11,22,17,04,64.40
2010,11,22,17,05,64.40
2010,11,22,17,06,53.10
2010,11,22,17,07,38.60
2010,11,22,17,08,43.50
2010,11,22,17,09,51.50
2010,11,22,17,10,51.50
2010,11,22,17,11,43.50
2010,11,22,17,12,35.40
2010,11,22,17,13,41.80
2010,11,22,17,14,43.50
2010,11,22,17,15,45.10
2010,11,22,17,16,40.20
2010,11,22,17,17,38.60
2010,11,22,17,18,53.10
2010,11,22,17,19,49.90
2010,11,22,17,20,62.70
2010,11,22,17,21,48.30
2010,11,22,17,22,45.10
2010,11,22,17,23,51.50
2010,11,22,17,24,51.50
2010,11,22,17,25,56.30
2010,11,22,17,26,57.90
2010,11,22,17,27,40.20
2010,11,22,17,28,45.10
2010,11,22,17,29,54.70
2010,11,22,17,30,48.30
2010,11,22,17,31,62.70
2010,11,22,17,32,48.30
2010,11,22,17,33,51.50
2010,11,22,17,34,45.10
2010,11,22,17,35,43.50
2010,11,22,17,36,35.40
2010,11,22,17,37,35.40
2010,11,22,17,38,38.60
2010,11,22,17,39,54.70
2010,11,22,17,40,51.50
2010,11,22,17,41,46.70
2010,11,22,17,42,38.60
2010,11,22,17,43,49.90
2010,11,22,17,44,51.50
2010,11,22,17,45,49.90
2010,11,22,17,46,46.70
2010,11,22,17,47,53.10
2010,11,22,17,48,45.10
2010,11,22,17,49,49.90
2010,11,22,17,50,51.50
2010,11,22,17,51,40.20
2010,11,22,17,52,49.90
2010,11,22,17,53,43.50
2010,11,22,17,54,49.90
2010,11,22,17,55,53.10
2010,11,22,17,56,45.10
2010,11,22,17,57,48.30
2010,11,22,17,58,43.50
2010,11,22,17,59,61.20
2010,11,22,18,00,46.70
2010,11,22,18,01,64.40
2010,11,22,18,02,46.70
2010,11,22,18,03,48.30
2010,11,22,18,04,48.30
2010,11,22,18,05,40.20
2010,11,22,18,06,45.10
2010,11,22,18,07,41.80
2010,11,22,18,08,48.30
2010,11,22,18,09,46.70
2010,11,22,18,10,46.70
2010,11,22,18,11,43.50
2010,11,22,18,12,45.10
2010,11,22,18,13,41.80
2010,11,22,18,14,51.50
2010,11,22,18,15,53.10
2010,11,22,18,16,53.10
2010,11,22,18,17,53.10
2010,11,22,18,18,53.10
2010,11,22,18,19,53.10
2010,11,22,18,20,53.10
2010,11,22,18,21,46.70